Location: Cabeza de los Veneras
(40.2000°N, 5.2000°W)
Time: 03:11:51
(UTC+00:00)

Cosmos 1300 Rocket - Pass Details

Date: 18 April 2024
Orbit: 598 x 623 km, 82.5° (Epoch: 25 May)

Event Time Altitude Azimuth Distance (km) Brightness Sun altitude
Rises 19:44:13 0° 188° (S) 2,861 6.8 -8.3°
Reaches altitude 10° 19:46:25 10° 189° (S) 1,965 6.0 -8.6°
Maximum altitude 19:50:47 84° 277° (W) 626 3.6 -9.4°
Drops below altitude 10° 19:55:13 10° 6° (N) 1,994 6.4 -10.2°
Sets 19:57:27 0° 7° (N) 2,908 7.2 -10.6°
